Location: Newark
(43.9494°N, 6.8108°E)
Time: 19:19:42
(UTC+00:00)

Vanguard 2 Rocket - Visible Passes

Search period start: 23 October 2019 00:00
Search period end: 02 November 2019 00:00
Orbit: 553 x 3327 km, 32.9° (Epoch: 23 October)

Date Brightness Start Highest point End Pass type
(mag) Time Alt. Az. Time Alt. Az. Time Alt. Az.
23 Oct 10.8 05:08:31 10° S 05:17:53 19° SE 05:29:16 10° E visible
24 Oct 10.9 04:14:46 10° SE 04:18:05 11° SE 04:21:40 10° ESE visible
25 Oct 10.5 05:19:47 10° S 05:30:33 27° SE 05:44:40 10° E visible
26 Oct 10.6 04:22:53 10° SSE 04:30:37 18° SE 04:40:17 10° E visible
27 Oct 10.3 05:32:03 10° SSW 05:43:23 34° SE 05:59:13 10° E visible
28 Oct 10.3 04:34:11 10° S 04:43:17 25° SE 04:55:46 10° E visible
29 Oct 10.4 03:37:46 10° SSE 03:43:42 15° SE 03:51:05 10° E visible
30 Oct 10.0 04:46:34 10° SSW 04:56:10 32° SE 05:10:20 10° E visible
31 Oct 10.0 03:49:00 10° S 03:56:26 22° SE 04:06:48 10° E visible
01 Nov 10.1 02:53:17 10° SSE 02:57:09 13° SE 03:01:45 10° ESE visible
01 Nov 9.8 04:59:32 10° SW 05:09:16 39° SSE 05:24:28 10° E visible
